Regional Weather Roundup
Issued by NWS

Home | Current Version | Previous Version | Graphics & Text | Print | Product List | Glossary On
Versions: 1 2 3 4 5 6 7 8 9 10 11 12 13 14 15 16 17 18 19 20 21 22 23 24 25 26 27 28 29 30 31 32 33 34 35 36 37 38 39 40 41 42 43 44 45 46 47
000
ASUS45 KCYS 031710
RWRWY

WYOMING REGIONAL WEATHER ROUNDUP
NATIONAL WEATHER SERVICE CHEYENNE WY
1100 AM MDT FRI JUL 03 2015

NOTE:  "FAIR" INDICATES FEW OR NO CLOUDS BELOW 12,000 FEET
WITH NO SIGNIFICANT WEATHER AND/OR OBSTRUCTIONS TO VISIBILITY.

WYZ001-031800-
YELLOWSTONE NATIONAL PARK

CITY           SKY/WX    TMP DP  RH WIND       PRES   REMARKS
LK YELLOWSTONE   N/A     67  48  50 E5        30.30F
W YELLOWSTONE  NOT AVBL

$$
WYZ002>013-054>058-071-098>099-031800-
NORTHERN WYOMING

CITY           SKY/WX    TMP DP  RH WIND       PRES   REMARKS
JACKSON          N/A     70  46  43 CALM      30.21S
CODY           PTSUNNY   77  50  38 S7        30.09F
GREYBULL       FAIR      83  51  33 S8        30.02F
WORLAND        FAIR      84  55  36 N7        30.04F
SHERIDAN       FAIR      80  52  37 NE3       30.05F
BUFFALO        FAIR      78  48  34 VRB5      30.12S
GILLETTE       FAIR      79  54  41 S12       30.08F
HULETT         FAIR      73  55  53 SW6       30.11S
NEWCASTLE      FAIR      72  54  53 MISG      30.12F

$$
WYZ014>020-022>026-101>103-031800-
CENTRAL WYOMING

CITY           SKY/WX    TMP DP  RH WIND       PRES   REMARKS
BIG PINEY      FAIR      75  48  38 VRB7      30.26F
PINEDALE       FAIR      73  46  38 E8        30.27F
DUBOIS         PTSUNNY   73  46  38 E5        30.23F
LANDER         FAIR      75  55  49 VRB3      30.14F
RIVERTON       FAIR      76  54  46 VRB5      30.15F
CASPER         FAIR      79  52  38 SW8       30.14S
DOUGLAS        FAIR      78  57  48 SE8       30.12F

$$
WYZ021-027>030-104>119-031800-
SOUTHERN WYOMING

CITY           SKY/WX    TMP DP  RH WIND       PRES   REMARKS
EVANSTON       FAIR      77  40  26 NW3       30.27F
KEMMERER       FAIR      77  45  31 SE8       30.28S
FORT BRIDGER   SUNNY     75  46  35 CALM      30.30S
ROCK SPRINGS   FAIR      75  51  43 CALM      30.25F
DIXON          FAIR      78  45  31 W3        30.24S
RAWLINS        FAIR      70  51  51 VRB3      30.25F
SARATOGA       FAIR      72  52  49 N3        30.27S
LARAMIE        FAIR      72  47  40 VRB6      30.26F
CHEYENNE       FAIR      71  56  58 SW9       30.22F
TORRINGTON     FAIR      75  58  55 S6        30.11F
PINE BLUFFS    FAIR      73  55  53 S5        30.18F

$$


USA.gov is the U.S. government's official web portal to all federal, state and local government web resources and services.